Location: Epalinges
(46.5518°N, 6.6683°E)
Time: 02:51:02
(UTC+00:00)

Cosmos 2058 - Pass Details

Date: 20 June 2021
Orbit: 562 x 582 km, 82.5° (Epoch: 04 August)

Event Time Altitude Azimuth Distance (km) Brightness Sun altitude
Exits shadow 00:24:27 35° 142° (SE) 913 3.6 -19.1°
Maximum altitude 00:25:41 48° 94° (E) 743 3.5 -19.1°
Drops below altitude 10° 00:29:38 10° 20° (NNE) 1,868 6.8 -18.9°
Sets 00:31:52 0° 15° (NNE) 2,771 8.1 -18.8°
